Location: Bad Salzschlirf
(50.3750°N, 9.3000°E)
Time: 06:20:27
(UTC+01:00)

ISS - Pass Details

Date: 21 January 2021
Orbit: 418 x 421 km, 51.6° (Epoch: 23 January)

Event Time Altitude Azimuth Distance (km) Brightness Sun altitude
Rises 19:28:20 0° 242° (WSW) 2,364 1.1 -23.6°
Reaches altitude 10° 19:30:26 10° 238° (WSW) 1,502 -0.1 -23.9°
Enters shadow 19:32:25 32° 227° (SW) 751 -2.1 -24.2°
